weather.gov     
National Weather Service

Terminal Aerodrome Forecast
NWS Homepage
This page is being discontinued on March 12, 2014.
The same data is available at this site. Please update your bookmarks.
Thank you, and we apologize for the inconvenience.
Please send an email to SR-SRH.Webmaster@noaa.gov with any concerns.


Current Version
Previous Version:    01  02  03  04  05  06  07  08  09  10  11  12  13  14  15  16  17  18  19  20  21  22  23  24  25  
[Printable]
728
FTUS44 KCRP 310500
TAFCRP
TAF
KCRP 310538Z 3106/0106 13004KT P6SM FEW018 SCT100
     FM310900 VRB03KT P6SM SCT012 SCT100
      TEMPO 3111/3115 4SM -SHRA BR BKN015 BKN100
     FM311500 02014KT P6SM BKN050 BKN100
     FM311900 03015KT P6SM SCT070
     FM010000 02009KT P6SM SKC=


U.S. Dept. of Commerce
NOAA National Weather Service
1325 East West Highway
Silver Spring, MD 20910
E-mail: w-nws.webmaster@noaa.gov
Page last modified: May 16, 2007
NATIONAL WEATHER SERVICE: for Safety, for Work, for Fun - FOR LIFE